Temp
9 9 9 10 10 10 10 10 11 11 11 11 11 11 11 10 10 10 11 9 9 8
10 10 11 10 10 10 10 10 11 11 11 11 11 12 11 11 11 11 11 10 9 9
11 11 10 10 10 10 10 11 11 11 11 12 12 11 11 11 11 10 10 9 9 9
13 12 12 12 12 12 12 12 12 12 12 11 11 11 11 10 10 9 9 9 9 9
13 12 12 12 12 11 12 11 11 11 11 10 10 10 10 9 9 9 9 9 9 8
14 12 13 12 12 12 12 12 11 11 10 11 10 9 10 9 9 9 9 8 8 8
15 15 14 13 12 12 12 11 12 11 10 10 10 9 9 9 9 9 9 8 8 8
14 13 13 12 12 12 11 11 11 10 10 10 10 10 10 10 10 8 8 8 8 6
12 12 12 12 11 10 10 10 10 10 9 9 9 9 9 10 9 9 8 8 7 5
12 12 11 11 10 10 10 10 10 9 9 9 9 8 8 8 8 7 6 5 4 3
11 10 10 10 9 9 9 9 10 9 9 9 8 8 6 5 4 4 4 3 3 2
9 9 9 9 9 9 9 9 9 9 8 7 6 5 4 4 3 3 3 3 2 1
8 8 8 8 8 7 8 8 7 6 5 4 4 3 3 2 3 3 2 -1 -1 -2
8 8 8 7 7 7 7 6 5 5 4 3 2 2 1 1 -1 -1 -2 -3 -3 -4
Height
1475 1479 1483 1489 1494 1496 1501 1504 1508 1511 1513 1515 1516 1519 1520 1520 1521 1521 1521 1523 1523 1525
1472 1475 1478 1483 1488 1492 1497 1499 1502 1504 1507 1508 1510 1512 1512 1512 1512 1513 1513 1515 1517 1517
1469 1473 1476 1480 1483 1486 1491 1492 1494 1497 1500 1502 1504 1505 1504 1503 1504 1504 1504 1507 1508 1509
1464 1468 1471 1474 1478 1481 1484 1486 1488 1491 1493 1494 1494 1494 1493 1493 1493 1494 1495 1496 1497 1500
1456 1460 1464 1467 1470 1473 1475 1479 1482 1484 1484 1482 1481 1481 1482 1484 1476 1486 1484 1487 1488 1490
1449 1450 1455 1459 1463 1467 1470 1472 1473 1474 1473 1473 1473 1470 1472 1471 1474 1475 1476 1477 1478 1482
1441 1442 1447 1452 1455 1457 1460 1463 1464 1466 1464 1464 1465 1464 1464 1465 1466 1466 1466 1467 1471 1473
1433 1437 1441 1444 1447 1450 1452 1454 1456 1457 1457 1456 1457 1457 1457 1457 1458 1458 1460 1461 1463 1463
1427 1432 1435 1438 1440 1443 1444 1446 1448 1448 1448 1448 1448 1449 1449 1450 1449 1450 1450 1452 1453 1454
1423 1426 1429 1432 1435 1437 1438 1440 1441 1441 1441 1441 1441 1441 1441 1442 1441 1441 1441 1442 1446 1447
1419 1422 1425 1428 1430 1432 1433 1434 1434 1435 1435 1435 1434 1434 1434 1436 1436 1436 1436 1440 1444 1447
1416 1418 1421 1423 1426 1427 1428 1429 1430 1430 1430 1431 1430 1431 1431 1432 1433 1435 1435 1438 1441 1442
1414 1416 1419 1421 1423 1424 1426 1427 1426 1427 1428 1428 1429 1430 1431 1432 1432 1432 1432 1435 1436 1438
1412 1415 1417 1419 1421 1422 1424 1425 1425 1426 1426 1427 1429 1429 1430 1430 1430 1432 1432 1434 1435 1436
Wind_Speed
33 32 35 37 37 40 44 45 42 40 40 39 37 36 37 37 38 38 39 39 37 38
32 34 35 37 38 41 42 43 43 42 43 41 42 42 41 42 41 39 40 38 37 39
35 37 38 38 40 40 42 42 42 43 43 44 45 43 42 43 41 40 39 40 42 43
36 36 36 38 39 39 39 40 43 44 44 45 45 43 42 40 41 39 40 44 45 44
38 38 40 41 40 40 41 42 44 44 45 48 44 46 40 39 30 34 43 44 44 44
41 45 42 42 43 43 44 44 44 45 45 45 43 48 44 35 44 50 50 45 45 41
43 44 44 45 46 47 48 46 46 44 31 41 40 38 40 39 44 47 49 43 41 42
50 50 49 48 47 47 45 43 42 42 43 42 38 33 32 36 39 38 38 39 41 42
39 42 44 45 44 42 41 41 39 37 36 40 39 36 36 33 36 38 38 38 38 36
29 30 31 31 33 33 32 30 28 26 32 32 34 35 33 35 39 41 36 31 30 30
24 24 24 24 23 21 20 20 25 25 26 30 32 32 30 27 25 23 22 21 20 20
14 11 11 12 14 17 18 19 21 24 21 21 20 21 19 18 20 20 19 18 23 21
4 5 5 7 8 11 12 15 14 13 14 14 15 15 16 17 18 21 20 18 17 16
6 5 4 6 7 9 10 11 11 13 13 14 15 17 18 16 15 14 13 12 11 10
Wind_Direction
215 218 218 218 220 222 224 228 233 233 238 245 255 259 258 258 257 257 256 250 256 255
218 218 217 220 226 228 232 234 235 240 247 251 257 260 262 260 260 261 262 255 258 261
221 222 223 227 230 232 234 235 238 243 248 256 259 261 262 262 262 263 265 263 256 256
227 228 229 232 235 237 240 242 246 250 254 256 259 262 264 266 262 268 266 266 256 255
234 235 236 240 244 247 251 253 256 259 262 264 271 270 269 271 250 242 254 259 253 253
246 241 245 247 249 251 255 258 264 267 271 279 279 268 260 259 263 255 248 254 252 254
247 252 252 254 257 259 261 263 266 270 266 273 272 273 259 258 260 259 253 253 255 254
244 249 254 256 259 261 263 266 268 272 274 265 263 261 265 258 266 260 256 254 252 251
250 251 254 258 262 265 267 268 270 272 270 271 261 269 269 261 260 251 247 247 248 242
256 256 257 260 261 263 266 270 272 271 269 268 270 275 264 261 258 252 246 241 239 218
251 252 254 257 259 261 261 262 262 262 268 269 270 268 263 254 251 244 226 214 217 233
244 242 243 250 246 240 245 251 257 256 260 264 264 260 249 236 225 212 208 220 229 227
191 207 213 225 242 250 264 269 264 264 266 263 249 207 207 210 214 215 213 205 218 222
159 171 222 258 279 273 269 268 257 254 222 205 205 206 209 208 205 208 213 219 236 256